Weather in Sumy

Russia / Penza Oblast     52°42′09″N   44°43′05″E
temp.,
°C
wind,
m/s
gust,
m/s
humid.,
%
clouds,
%
prec.,
mm/h
press.,
hPa
HPBL,
m
8 march, mon
mon800:00−3sw101794100 1.0 1000979
03:00−3w81393100 2.1 1000901
06:00−7wsw5128374 0.1 1002303
09:00−6wsw6128739 0.1 1003435
12:00−2sw7118262 0.0 10021086
15:00−2wsw7118381 0.1 10021201
18:00−5w5138697 0.1 1004428
21:00−10w479065 0.1 1007109
9 march, tue
tue900:00−13w34920 0.0 100934
03:00−15wsw23950 0.0 101020
06:00−16wsw229814 0.0 101120
09:00−13w129533 0.0 101276
12:00−10wnw228958 0.0 1012274
15:00−8nw349179 0.0 1012406
18:00−10nw4895100 0.3 1013288
21:00−13nw489599 0.3 1015167
10 march, wed
wed1000:00−16nnw479778 0.0 1016101
03:00−19nw479875 0.0 1017105
06:00−21nw499931 0.0 1019148
09:00−19nw589655 0.0 1021289
12:00−17nw5791100 0.0 1022460
15:00−16nw5889100 0.1 1023622
18:00−20nw4697100 0.0 1024114
21:00−23nnw479678 0.0 102797
11 march, thu
thu1100:00−26nnw34984 0.0 102845
03:00−27nnw34982 0.0 102941
06:00−28nnw34980 0.0 103040
09:00−23nnw35950 0.0 1031164
12:00−19nw359121 0.0 1031294
15:00−17wnw469011 0.0 1030346
18:00−20wnw44964 0.0 103157
21:00−21wnw34972 0.0 103238
12 march, fri
fri1200:00−21wnw339744 0.0 103327
03:00−21wnw239660 0.0 103323
06:00−23wnw22960 0.0 103420
09:00−19wsw11900 0.0 103477
12:00−15ssw22830 0.0 1033232
15:00−13ssw34850 0.0 1032294
18:00−17s349124 0.0 103150
21:00−18s498962 0.0 1030152